DW9313 Weather Reports


Display with metric or nautical units.
time (UTC)temp
F
wind
direction
speed
MPH
gust
MPH
rain 1hr
in
rain 24hr
in
rain mn
in
humidity
%
barometer
mb
20180721073751 60 331 4.0 8.0 0.00 0.01 0.00 82 1016.0
20180721073251 60 324 3.0 8.0 0.00 0.01 0.00 82 1015.9
20180721072751 60 347 4.0 8.0 0.00 0.01 0.00 82 1016.0
20180721072251 60 331 3.0 7.0 0.00 0.01 0.00 82 1015.9
20180721071751 60 336 2.0 8.0 0.00 0.01 0.00 83 1015.9
20180721071251 59 342 3.0 8.0 0.00 0.01 0.00 83 1016.0
20180721070751 59 340 3.0 8.0 0.00 0.01 0.00 83 1015.8
20180721070251 59 328 4.0 9.0 0.00 0.01 0.00 84 1015.7
20180721065751 59 358 1.0 9.0 0.00 0.01 0.00 84 1015.8
20180721065251 58 331 6.0 12.0 0.00 0.01 0.00 84 1015.9
20180721064751 58 345 5.0 12.0 0.00 0.01 0.00 84 1015.8
20180721064251 58 5 4.0 12.0 0.00 0.01 0.00 85 1015.9
20180721063751 58 337 6.0 13.0 0.00 0.01 0.00 85 1015.9
20180721063251 58 336 6.0 12.0 0.00 0.01 0.00 85 1015.7
20180721062751 58 330 5.0 8.0 0.00 0.01 0.00 85 1015.7
20180721062251 58 22 4.0 8.0 0.00 0.01 0.00 85 1015.8
20180721061752 58 332 4.0 12.0 0.00 0.01 0.00 85 1015.6
20180721061251 58 335 6.0 12.0 0.00 0.01 0.00 85 1015.4
20180721060751 58 335 6.0 14.0 0.00 0.01 0.00 85 1015.4
20180721060251 58 336 5.0 9.0 0.00 0.01 0.00 85 1015.2
20180721055751 58 335 4.0 12.0 0.00 0.01 0.00 85 1015.1
20180721055251 58 333 6.0 13.0 0.00 0.01 0.00 85 1015.2
20180721054752 58 350 5.0 13.0 0.00 0.01 0.00 85 1015.2
20180721054251 58 327 5.0 7.0 0.00 0.01 0.00 85 1015.2
20180721053751 58 335 3.0 8.0 0.00 0.01 0.00 85 1015.2
20180721053252 58 324 2.0 6.0 0.00 0.01 0.00 85 1015.2
20180721052752 58 322 1.0 7.0 0.00 0.01 0.00 85 1015.1
20180721052252 58 329 3.0 8.0 0.00 0.01 0.00 85 1014.9
20180721051755 58 348 1.0 6.0 0.00 0.01 0.00 85 1014.8
20180721051251 58 334 2.0 6.0 0.00 0.01 0.00 85 1014.7
20180721050752 58 317 3.0 8.0 0.00 0.01 0.00 84 1014.7
20180721050252 58 324 5.0 12.0 0.00 0.01 0.00 84 1014.7
20180721045752 58 334 6.0 12.0 0.00 0.01 0.00 84 1014.7
20180721045254 58 328 5.0 12.0 0.00 0.01 0.00 84 1014.6
20180721044752 58 324 7.0 9.0 0.00 0.01 0.00 84 1014.7
20180721044255 58 318 6.0 9.0 0.00 0.01 0.00 84 1014.8
20180721043752 58 323 7.0 12.0 0.00 0.01 0.00 84 1014.7
20180721043252 58 325 6.0 8.0 0.00 0.01 0.00 84 1014.7
20180721042752 59 330 5.0 8.0 0.00 0.01 0.00 84 1014.6
20180721042252 59 336 3.0 8.0 0.00 0.01 0.00 84 1014.6
20180721041752 59 336 6.0 8.0 0.00 0.01 0.00 84 1014.6
20180721041252 59 319 3.0 8.0 0.00 0.01 0.00 84 1014.6
20180721040753 59 325 2.0 7.0 0.00 0.01 0.00 84 1014.5
20180721040252 59 320 2.0 6.0 0.00 0.01 0.00 84 1014.5
20180721035752 59 333 3.0 8.0 0.00 0.01 0.00 84 1014.5
20180721035253 59 336 3.0 7.0 0.00 0.01 0.00 84 1014.4
20180721034753 59 300 1.0 6.0 0.00 0.01 0.00 84 1014.3
20180721034252 59 317 3.0 8.0 0.00 0.01 0.00 84 1014.4
20180721033753 59 298 5.0 9.0 0.00 0.01 0.00 84 1014.5
20180721033253 59 324 5.0 12.0 0.00 0.01 0.00 84 1014.4
20180721032753 60 322 2.0 8.0 0.00 0.01 0.00 84 1014.4
20180721032253 60 316 5.0 8.0 0.00 0.01 0.00 84 1014.3
20180721031753 60 317 3.0 7.0 0.00 0.01 0.00 84 1014.2
20180721031253 60 321 6.0 12.0 0.00 0.01 0.00 83 1014.2
20180721030753 60 324 5.0 8.0 0.00 0.01 0.00 83 1014.2
20180721030252 60 321 6.0 14.0 0.00 0.01 0.00 83 1014.1
20180721025757 61 336 6.0 13.0 0.00 0.01 0.00 83 1014.0
20180721025253 61 325 5.0 9.0 0.00 0.01 0.00 83 1014.0
20180721024754 61 329 5.0 14.0 0.00 0.01 0.00 83 1013.9
20180721024253 61 331 5.0 8.0 0.00 0.01 0.00 83 1014.0
20180721023753 61 326 5.0 14.0 0.00 0.01 0.00 83 1014.0
20180721023254 61 336 7.0 13.0 0.00 0.01 0.00 83 1014.1
20180721022754 61 336 7.0 13.0 0.00 0.01 0.00 83 1014.2
20180721022253 61 325 5.0 9.0 0.00 0.01 0.00 83 1014.2
20180721021754 61 332 6.0 8.0 0.00 0.01 0.00 83 1014.2
20180721021254 61 333 6.0 12.0 0.00 0.01 0.00 83 1014.2
20180721020753 61 345 5.0 12.0 0.00 0.01 0.00 83 1014.1
20180721020253 61 326 5.0 12.0 0.00 0.01 0.00 84 1014.2
20180721015754 61 333 7.0 12.0 0.00 0.01 0.00 84 1014.3
20180721015253 61 327 6.0 12.0 0.00 0.01 0.00 84 1014.2
20180721014754 61 327 4.0 9.0 0.00 0.01 0.00 84 1014.2
20180721014253 62 324 6.0 13.0 0.00 0.01 0.00 84 1014.2
20180721013754 62 330 6.0 12.0 0.00 0.01 0.00 84 1014.2
20180721013254 62 329 6.0 12.0 0.00 0.01 0.00 84 1014.2
20180721012754 62 338 5.0 13.0 0.00 0.01 0.00 84 1014.2
20180721012254 62 333 5.0 12.0 0.00 0.01 0.00 84 1014.2
20180721011753 62 341 5.0 9.0 0.00 0.01 0.00 84 1014.2
20180721011254 62 331 6.0 12.0 0.00 0.01 0.00 84 1014.2
20180721010754 62 323 4.0 15.0 0.00 0.01 0.00 84 1014.2
20180721010253 62 329 5.0 12.0 0.00 0.01 0.00 84 1014.1
20180721005754 62 333 5.0 9.0 0.00 0.01 0.00 84 1014.1
20180721005254 62 348 7.0 13.0 0.00 0.01 0.00 84 1014.0
20180721004754 62 328 6.0 10.0 0.00 0.01 0.00 84 1014.0
20180721004255 62 338 4.0 12.0 0.00 0.01 0.00 84 1013.9
20180721003754 62 329 5.0 12.0 0.00 0.01 0.00 84 1013.9
20180721003254 62 339 6.0 9.0 0.00 0.01 0.00 84 1013.9
20180721002754 62 328 5.0 12.0 0.00 0.01 0.00 84 1013.9
20180721002254 62 335 5.0 12.0 0.00 0.01 0.00 83 1013.8
20180721001755 63 332 6.0 12.0 0.00 0.01 0.00 83 1013.8
20180721001254 63 332 6.0 12.0 0.00 0.01 0.00 83 1013.7
20180721000754 63 340 7.0 14.0 0.00 0.01 0.00 82 1013.6
20180721000255 63 332 6.0 14.0 0.00 0.01 0.00 82 1013.7
20180720235755 63 333 7.0 14.0 0.00 0.01 0.00 82 1013.6
20180720235254 63 331 4.0 12.0 0.00 0.01 0.00 81 1013.6
20180720234754 63 327 5.0 8.0 0.00 0.01 0.00 81 1013.5
20180720234254 63 330 6.0 12.0 0.00 0.01 0.00 81 1013.4
20180720233755 64 337 6.0 13.0 0.00 0.01 0.00 81 1013.4
20180720233254 64 346 6.0 13.0 0.00 0.01 0.00 81 1013.4
20180720232755 64 333 5.0 12.0 0.00 0.01 0.00 81 1013.5
20180720232255 64 331 6.0 14.0 0.00 0.01 0.00 81 1013.4
20180720231755 64 334 6.0 9.0 0.00 0.01 0.00 81 1013.4
20180720231255 64 328 3.0 8.0 0.00 0.01 0.00 81 1013.5
20180720230817 64 330 3.0 7.0 0.00 0.01 0.00 81 1013.5
20180720230255 64 332 4.0 9.0 0.00 0.01 0.00 81 1013.5
20180720225755 64 346 4.0 9.0 0.00 0.01 0.01 81 1013.6
20180720225255 64 299 2.0 8.0 0.00 0.01 0.01 81 1013.6
20180720224756 64 328 3.0 8.0 0.00 0.01 0.01 81 1013.5
20180720224255 64 5 6.0 14.0 0.00 0.01 0.01 81 1013.5
20180720223755 64 353 6.0 13.0 0.00 0.01 0.01 82 1013.5
20180720223256 64 328 4.0 12.0 0.00 0.01 0.01 83 1013.5
20180720222755 64 331 6.0 12.0 0.00 0.01 0.01 83 1013.5
20180720222258 64 342 2.0 7.0 0.00 0.01 0.01 84 1013.5
20180720221755 64 340 5.0 8.0 0.00 0.01 0.01 85 1013.6
20180720221256 64 339 4.0 8.0 0.00 0.01 0.01 85 1013.5
20180720220755 64 334 5.0 8.0 0.00 0.01 0.01 85 1013.5
20180720220255 64 336 5.0 8.0 0.00 0.01 0.01 85 1013.5
20180720215756 64 345 3.0 8.0 0.00 0.01 0.01 85 1013.4
20180720215255 65 338 5.0 8.0 0.00 0.01 0.01 85 1013.4
20180720214755 65 334 5.0 9.0 0.00 0.01 0.01 85 1013.3
20180720214256 65 329 6.0 8.0 0.00 0.01 0.01 85 1013.3
20180720213756 65 323 5.0 9.0 0.00 0.01 0.01 85 1013.4
20180720213256 65 327 5.0 9.0 0.00 0.01 0.01 84 1013.4
20180720212756 65 328 5.0 9.0 0.00 0.01 0.01 84 1013.4
20180720212256 65 325 5.0 9.0 0.00 0.01 0.01 84 1013.4
20180720211755 65 329 5.0 8.0 0.00 0.01 0.01 84 1013.4
20180720211256 65 326 6.0 12.0 0.00 0.01 0.01 84 1013.4
20180720210755 65 319 4.0 8.0 0.00 0.01 0.01 84 1013.3
20180720210256 65 327 5.0 12.0 0.00 0.01 0.01 84 1013.3
20180720205756 65 330 6.0 14.0 0.00 0.01 0.01 84 1013.3
20180720205255 66 322 6.0 15.0 0.00 0.01 0.01 84 1013.2
20180720204756 66 334 5.0 16.0 0.00 0.01 0.01 83 1013.2
20180720204255 67 331 9.0 16.0 0.00 0.01 0.01 82 1013.2
20180720203756 67 330 7.0 14.0 0.00 0.01 0.01 81 1013.0
20180720203256 67 343 5.0 12.0 0.00 0.01 0.01 80 1013.0
20180720202756 67 332 9.0 16.0 0.00 0.01 0.01 80 1012.9
20180720202256 67 322 7.0 14.0 0.00 0.01 0.01 79 1012.8
20180720201756 68 330 6.0 14.0 0.00 0.01 0.01 79 1012.8
20180720201256 68 322 6.0 14.0 0.00 0.01 0.01 79 1012.8
20180720200756 68 325 7.0 13.0 0.00 0.01 0.01 79 1012.8
20180720200256 68 323 5.0 9.0 0.00 0.01 0.01 79 1012.6
20180720195756 68 319 7.0 14.0 0.00 0.01 0.01 79 1012.6
20180720195256 68 317 6.0 12.0 0.00 0.01 0.01 79 1012.5
20180720194756 68 310 6.0 12.0 0.00 0.01 0.01 79 1012.5
20180720194257 68 312 5.0 12.0 0.00 0.01 0.01 79 1012.4
20180720193756 68 326 7.0 14.0 0.00 0.01 0.01 79 1012.4
20180720193257 68 302 7.0 14.0 0.00 0.01 0.01 78 1012.4
20180720192757 68 308 6.0 14.0 0.00 0.01 0.01 78 1012.5
20180720192257 68 296 6.0 14.0 0.00 0.01 0.01 78 1012.6
20180720191757 68 302 7.0 14.0 0.00 0.01 0.01 78 1012.5
20180720191257 68 319 9.0 15.0 0.00 0.01 0.01 78 1012.6
20180720190756 69 306 7.0 13.0 0.00 0.01 0.01 77 1012.5
20180720190257 69 315 7.0 14.0 0.00 0.01 0.01 76 1012.4
20180720185757 69 310 6.0 14.0 0.00 0.01 0.01 76 1012.5
20180720185257 69 299 6.0 14.0 0.00 0.01 0.01 76 1012.4
20180720184757 69 300 7.0 16.0 0.00 0.01 0.01 76 1012.3
20180720184311 69 314 8.0 16.0 0.00 0.01 0.01 75 1012.3
20180720183800 70 297 7.0 14.0 0.00 0.01 0.01 75 1012.2
20180720183257 70 306 9.0 15.0 0.00 0.01 0.01 74 1012.2
20180720182757 70 306 9.0 16.0 0.00 0.01 0.01 74 1012.2
20180720182257 70 307 9.0 16.0 0.00 0.01 0.01 74 1012.2
20180720181757 70 308 6.0 12.0 0.00 0.01 0.01 74 1012.2
20180720181257 70 315 8.0 15.0 0.00 0.01 0.01 74 1012.3
20180720180757 70 304 9.0 15.0 0.00 0.01 0.01 74 1012.3
20180720180257 70 316 7.0 13.0 0.00 0.01 0.01 75 1012.3
20180720175757 70 315 7.0 13.0 0.00 0.01 0.01 76 1012.3
20180720175258 69 298 5.0 9.0 0.00 0.01 0.01 78 1012.3
20180720174757 69 284 4.0 9.0 0.00 0.01 0.01 80 1012.3
20180720174258 69 287 2.0 8.0 0.00 0.01 0.01 80 1012.3
20180720173758 69 292 5.0 7.0 0.00 0.01 0.01 80 1012.3
20180720173257 69 235 4.0 9.0 0.00 0.01 0.01 80 1012.3
20180720172757 69 296 5.0 9.0 0.00 0.01 0.01 80 1012.4
20180720172258 69 272 7.0 14.0 0.00 0.01 0.01 80 1012.4
20180720171758 69 276 5.0 12.0 0.00 0.01 0.01 80 1012.4
20180720171258 68 258 5.0 12.0 0.00 0.01 0.01 80 1012.4
20180720170758 68 285 5.0 13.0 0.00 0.01 0.01 79 1012.4
20180720170258 68 277 6.0 15.0 0.00 0.01 0.01 79 1012.4
20180720165758 68 269 5.0 9.0 0.00 0.01 0.01 79 1012.4
20180720165258 69 268 6.0 12.0 0.00 0.01 0.01 79 1012.4
20180720164757 69 281 6.0 14.0 0.00 0.01 0.01 78 1012.5
20180720164258 69 287 7.0 13.0 0.00 0.01 0.01 77 1012.6
20180720163758 70 261 6.0 12.0 0.00 0.01 0.01 77 1012.5
20180720163258 70 285 6.0 14.0 0.00 0.01 0.01 76 1012.5
20180720162758 70 275 7.0 14.0 0.00 0.01 0.01 76 1012.5
20180720162259 70 253 6.0 15.0 0.00 0.01 0.01 77 1012.5
20180720161758 70 286 6.0 14.0 0.00 0.01 0.01 77 1012.6
20180720161258 70 266 5.0 14.0 0.00 0.01 0.01 77 1012.6
20180720160758 70 291 6.0 12.0 0.00 0.01 0.01 77 1012.6
20180720160258 70 318 7.0 13.0 0.00 0.01 0.01 77 1012.6
20180720155758 70 262 5.0 12.0 0.00 0.01 0.01 78 1012.7
20180720155258 69 286 6.0 14.0 0.00 0.01 0.01 79 1012.7
20180720154759 69 247 4.0 12.0 0.00 0.01 0.01 80 1012.7
20180720154258 68 248 5.0 12.0 0.00 0.01 0.01 81 1012.8
20180720153758 67 283 7.0 12.0 0.00 0.01 0.01 81 1012.9
20180720153258 67 270 6.0 13.0 0.00 0.01 0.01 81 1013.0
20180720152759 67 272 5.0 12.0 0.00 0.01 0.01 80 1013.1
20180720152259 67 278 6.0 12.0 0.00 0.01 0.01 79 1013.1
20180720151759 68 276 6.0 13.0 0.00 0.01 0.01 78 1013.2
20180720151259 68 236 6.0 12.0 0.00 0.01 0.01 77 1013.2
20180720150758 68 244 6.0 14.0 0.00 0.01 0.01 76 1013.1
20180720150259 69 279 5.0 9.0 0.00 0.01 0.01 75 1013.1
20180720145759 69 208 5.0 12.0 0.00 0.01 0.01 75 1013.1
20180720145258 69 273 5.0 12.0 0.00 0.01 0.01 73 1013.1
20180720144759 70 246 4.0 12.0 0.00 0.01 0.01 73 1013.1
20180720144259 70 265 4.0 8.0 0.00 0.01 0.01 72 1013.1
20180720143800 70 291 4.0 9.0 0.00 0.01 0.01 71 1013.2
20180720143259 71 275 5.0 13.0 0.00 0.01 0.01 71 1013.1
20180720142759 71 259 4.0 12.0 0.00 0.01 0.01 70 1013.1
20180720142259 72 257 6.0 12.0 0.00 0.01 0.01 69 1013.2
20180720141759 72 263 6.0 12.0 0.00 0.01 0.01 69 1013.1
20180720141259 73 235 7.0 13.0 0.00 0.01 0.01 69 1013.0
20180720140759 72 276 5.0 9.0 0.00 0.01 0.01 69 1013.1
20180720140259 72 229 4.0 12.0 0.00 0.01 0.01 70 1013.1
20180720135759 71 270 5.0 12.0 0.00 0.01 0.01 70 1013.1
20180720135259 71 287 6.0 9.0 0.00 0.01 0.01 70 1013.2
20180720134800 72 266 6.0 12.0 0.00 0.01 0.01 69 1013.3
20180720134300 72 229 7.0 12.0 0.00 0.01 0.01 70 1013.2
20180720133759 71 301 6.0 13.0 0.00 0.01 0.01 70 1013.3
20180720133300 71 306 7.0 14.0 0.00 0.01 0.01 70 1013.3
20180720132800 72 290 5.0 8.0 0.00 0.01 0.01 69 1013.3
20180720132300 72 285 3.0 8.0 0.00 0.01 0.01 69 1013.4
20180720131800 72 275 6.0 9.0 0.00 0.01 0.01 69 1013.5
20180720131300 71 294 5.0 9.0 0.00 0.01 0.01 71 1013.4
20180720130800 70 213 5.0 14.0 0.00 0.01 0.01 71 1013.5
20180720130300 71 284 6.0 15.0 0.00 0.01 0.01 70 1013.6
20180720125800 70 238 6.0 12.0 0.00 0.01 0.01 71 1013.7
20180720125300 70 278 3.0 12.0 0.00 0.01 0.01 71 1013.6
20180720124800 70 221 5.0 8.0 0.00 0.01 0.01 70 1013.7
20180720124300 70 261 7.0 13.0 0.00 0.01 0.01 72 1013.8
20180720123800 70 189 7.0 18.0 0.00 0.01 0.01 71 1013.9
20180720123300 69 278 3.0 8.0 0.00 0.01 0.01 72 1014.0
20180720122800 69 200 6.0 12.0 0.00 0.01 0.01 73 1014.0
20180720122300 69 243 5.0 9.0 0.00 0.01 0.01 72 1014.2
20180720121800 69 223 6.0 12.0 0.00 0.01 0.01 72 1014.2
20180720121300 69 251 5.0 9.0 0.00 0.01 0.01 72 1014.3
20180720120800 69 229 4.0 8.0 0.00 0.01 0.01 71 1014.3
20180720120300 68 282 5.0 8.0 0.00 0.01 0.01 72 1014.3
20180720115801 69 289 2.0 9.0 0.00 0.01 0.01 70 1014.3
20180720115300 69 128 3.0 7.0 0.00 0.01 0.01 71 1014.4
20180720114800 68 224 3.0 8.0 0.00 0.01 0.01 72 1014.4
20180720114300 68 221 5.0 8.0 0.00 0.01 0.01 71 1014.4
20180720113801 68 211 5.0 9.0 0.00 0.01 0.01 71 1014.4
20180720113301 67 199 4.0 8.0 0.00 0.01 0.01 72 1014.5
20180720112801 67 263 5.0 12.0 0.00 0.01 0.01 72 1014.6
20180720112301 67 205 3.0 9.0 0.00 0.01 0.01 72 1014.6
20180720111801 66 216 4.0 8.0 0.00 0.01 0.01 73 1014.6
20180720111301 66 200 5.0 8.0 0.00 0.01 0.01 73 1014.6
20180720110801 66 230 3.0 6.0 0.00 0.01 0.01 73 1014.7
20180720110301 66 196 3.0 7.0 0.00 0.01 0.01 73 1014.8
20180720105801 66 301 4.0 7.0 0.00 0.01 0.01 73 1014.7
20180720105301 65 247 3.0 8.0 0.00 0.01 0.01 73 1014.8
20180720104801 65 268 2.0 6.0 0.00 0.01 0.01 71 1014.8
20180720104301 65 295 2.0 6.0 0.00 0.01 0.01 73 1014.8
20180720103801 65 127 3.0 6.0 0.00 0.01 0.01 73 1014.9
20180720103301 65 276 3.0 7.0 0.00 0.01 0.01 74 1014.8
20180720102801 64 252 2.0 6.0 0.00 0.01 0.01 75 1014.8
20180720102301 64 224 2.0 6.0 0.00 0.01 0.01 76 1014.8
20180720101801 64 269 2.0 5.0 0.00 0.01 0.01 76 1014.9
20180720101301 63 298 2.0 6.0 0.00 0.01 0.01 76 1015.0
20180720100801 63 291 2.0 6.0 0.00 0.01 0.01 76 1015.0
20180720100301 63 309 2.0 6.0 0.00 0.01 0.01 76 1015.0
20180720095801 64 274 1.0 6.0 0.00 0.01 0.01 76 1015.0
20180720095301 64 320 0.0 6.0 0.00 0.01 0.01 76 1015.1
20180720094802 64 277 0.0 5.0 0.00 0.01 0.01 76 1015.1
20180720094302 64 300 1.0 2.0 0.00 0.01 0.01 76 1015.1
20180720093801 64 287 0.0 6.0 0.00 0.01 0.01 77 1015.0
20180720093301 64 256 1.0 2.0 0.01 0.01 0.01 78 1015.0
20180720092802 64 186 3.0 6.0 0.01 0.01 0.01 77 1015.2
20180720092302 64 282 1.0 5.0 0.01 0.01 0.01 76 1015.2
20180720091801 64 281 1.0 5.0 0.01 0.01 0.01 78 1015.3
20180720091301 63 231 1.0 6.0 0.01 0.01 0.01 78 1015.3
20180720090802 63 287 0.0 2.0 0.01 0.01 0.01 78 1015.3
20180720090302 63 264 0.0 2.0 0.01 0.01 0.01 78 1015.3
20180720085802 62 202 0.0 2.0 0.01 0.01 0.01 79 1015.3
20180720085305 61 284 0.0 3.0 0.01 0.01 0.01 77 1015.4
20180720084802 62 260 1.0 2.0 0.01 0.01 0.01 78 1015.4
20180720084303 62 297 0.0 0.0 0.01 0.01 0.01 78 1015.4
20180720083802 62 297 0.0 2.0 0.01 0.01 0.01 78 1015.5
20180720083302 62 201 0.0 2.0 0.00 0.00 0.00 77 1015.5
20180720082802 62 205 0.0 5.0 0.00 0.00 0.00 77 1015.4
20180720082302 62 292 2.0 5.0 0.00 0.00 0.00 77 1015.5
20180720081802 62 270 1.0 6.0 0.00 0.00 0.00 75 1015.6
20180720081303 62 283 1.0 6.0 0.00 0.00 0.00 75 1015.6
20180720080802 62 271 3.0 7.0 0.00 0.00 0.00 75 1015.6
20180720080302 62 312 2.0 6.0 0.00 0.00 0.00 75 1015.7
20180720075803 61 284 2.0 6.0 0.00 0.00 0.00 76 1015.6
20180720075305 61 284 3.0 8.0 0.00 0.00 0.00 76 1015.6
20180720074803 61 284 4.0 7.0 0.00 0.00 0.00 76 1015.6
20180720074302 61 292 5.0 8.0 0.00 0.00 0.00 76 1015.6